Location: Axtheid
(49.6213°N, 11.8205°E)
Time: 07:26:44
(UTC+00:00)

Cosmos 2263 Rocket - Visible Passes

Search period start: 12 May 2021 00:00
Search period end: 22 May 2021 00:00
Orbit: 824 x 848 km, 71.0° (Epoch: 11 May)

Date Brightness Start Highest point End Pass type
(mag) Time Alt. Az. Time Alt. Az. Time Alt. Az.
12 May 3.7 01:42:19 10° NNW 01:47:38 40° NE 01:52:56 10° ESE visible
12 May 5.3 20:08:26 10° WNW 20:11:29 15° NNW 20:14:33 10° N visible
12 May 5.3 23:42:54 10° N 23:45:08 12° NNE 23:47:23 10° NE visible
13 May 3.8 01:25:33 10° NNW 01:30:48 38° NE 01:36:03 10° ESE visible
13 May 5.2 19:51:23 10° WNW 19:54:36 15° NNW 19:57:51 10° N visible
13 May 5.3 23:26:14 10° N 23:28:15 12° NNE 23:30:15 10° NE visible
14 May 3.9 01:08:48 10° NNW 01:13:59 36° NE 01:19:09 10° ESE visible
14 May 5.2 19:34:20 10° WNW 19:37:44 16° NNW 19:41:08 10° N visible
14 May 5.3 23:09:36 10° N 23:11:21 11° NNE 23:13:06 10° NE visible
15 May 3.9 00:52:02 10° NNW 00:57:09 34° NE 01:02:16 10° ESE visible
15 May 2.4 02:35:52 10° NW 02:41:20 52° WSW 02:46:49 10° S visible
15 May 5.3 22:53:00 10° N 22:54:28 11° NNE 22:55:55 10° NE visible
16 May 4.0 00:35:17 10° NNW 00:40:20 32° NE 00:45:22 10° ESE visible
16 May 2.3 02:19:03 10° NW 02:24:34 57° WSW 02:30:06 10° S visible
16 May 5.3 22:36:26 10° N 22:37:34 11° NNE 22:38:40 10° NNE visible
17 May 4.1 00:18:33 10° NNW 00:23:31 30° NE 00:28:26 10° ESE visible
17 May 2.2 02:02:15 10° NW 02:07:49 61° WSW 02:13:23 10° SSE visible
17 May 5.3 22:20:02 10° NNE 22:20:39 10° NNE 22:21:17 10° NNE visible
18 May 4.1 00:01:48 10° NNW 00:06:40 28° NE 00:11:31 10° ESE visible
18 May 2.2 01:45:26 10° NNW 01:51:04 66° WSW 01:56:40 10° SSE visible
18 May 4.2 23:45:03 10° NNW 23:49:49 27° NE 23:54:36 10° ESE visible
19 May 2.1 01:28:39 10° NNW 01:34:17 71° WSW 01:39:55 10° SSE visible
19 May 4.2 23:28:18 10° NNW 23:32:59 26° NE 23:37:39 10° E visible
20 May 2.1 01:11:51 10° NNW 01:17:31 76° WSW 01:23:11 10° SSE visible
20 May 4.3 23:11:34 10° NNW 23:16:08 24° NE 23:20:42 10° E visible
21 May 2.1 00:55:04 10° NNW 01:00:45 81° WSW 01:06:26 10° SSE visible
21 May 3.9 02:40:51 10° WNW 02:43:46 14° W 02:46:41 10° SW visible
21 May 4.3 22:54:50 10° NNW 22:59:18 23° NE 23:03:45 10° E visible
